Location: Chandolas
(44.4033°N, 4.2533°E)
Time: 00:39:51
(UTC+00:00)

Cosmos 1484 Rocket - Pass Details

Date: 15 November 2019
Orbit: 507 x 559 km, 97.4° (Epoch: 07 December)

Event Time Altitude Azimuth Distance (km) Brightness Sun altitude
Rises 05:55:17 0° 356° (N) 2,743 6.2 -8.0°
Reaches altitude 10° 05:57:55 10° 338° (NNW) 1,849 5.1 -7.5°
Maximum altitude 06:00:41 18° 294° (WNW) 1,394 4.2 -7.1°
Drops below altitude 10° 06:03:26 10° 251° (WSW) 1,846 5.0 -6.6°
Sets 06:06:04 0° 232° (SW) 2,736 6.1 -6.2°
